Résultats de la compétition "Demi Finale Nord Est" du 15-06-2008 organisée par le club 8809
     
  Télécharger le fichier CSV.  
     
     

 Circuit "A"

Licence Nom Prénom Temps CN
précédent
Score sur
la course
Différence
1284PEYVELBenoit1:31:4379197032-887
1518MULLERMarc1:35:4974696731-738
747TINCHANTJohann1:36:3875476674-873
9354LOCATELLIYann1:39:4658186465+647
1790FLAMENTRégis1:41:4363456341-4
949PARZYCHFrederic1:44:0264726200-272
3210COCHEYBenoit1:47:2363616006-355
11390CLEMENT-AGONIStéphane1:50:1864975847-650
4013CHANDEZONJ-Luc1:51:5461595764-395
7049LEROYSimon1:54:3669205628-1292
8019LE BORGNEJulien2:00:0259575373-584
722FLICOTEAUXRaphael2:05:5656385121-517
10259HAURYAndre2:07:1354555070-385
6018FLICOTEAUXEmmanuelN/A58230-5823

  Indice de confiance du circuit (moyenne des différences entre CN et score sur la course des 3 à 10 premiers) : 395




 Circuit "Abis"

Licence Nom Prénom Temps CN
précédent
Score sur
la course
Différence
8964VALLAClement1:29:0470936508-585
11342LECLERCThomas1:41:0469305735-1195
1911MEYERKirian1:42:3261215653-468
7856BOUDETPierre1:43:3559575596-361
17648DUBURQUOISErwan1:44:2652935550+257
10442KERVARECJohann1:46:1765185453-1065
16118MYSCILEUlrich1:46:5849505419+469
9687BOTHORELPierre1:47:2255565398-158
10757MARTELFranck1:49:0951885310+122
17574LEQUINTRémi1:50:4551545233+79
894GOFFRETristan1:51:3051885198+10
1786FLAMENTClaude1:52:0652735170-103
2719HENRYErwann1:53:5841015086+985
6014THURIOTKevin1:55:5547935000+207
366VESCOVOJ-Albert1:57:1548124943+131
12759SCHAMBERGERPierre1:58:2458304895-935
2740VENONLoïc1:59:5358354835-1000
16261TERRIENSébastien2:00:0851664825-341
19676ROBERTLudovic2:05:09N/A4631N/A
3160CATALONSebastien2:09:1245644486-78
19020DUFRESNEFabien2:11:5741194393+274
15176QUINQUENELHerve2:12:0848784387-491
4080BONODEAUGuillaume2:12:2947284375-353
658QUEYROIStephane2:23:0242284052-176
9618PECHSTEINUlrich2:24:2542034013-190
12216SAUCEDEThomas2:30:33N/A3850N/A
1982HALLAYDominique2:32:0944123809-603
19024DALIBARDNicolas2:33:11N/A3784N/A
17076HERLINGJerome2:37:4142713676-595
2538MOUCHETTELaurent2:43:2946663545-1121
17895LECLERCJessy2:55:0045513312-1239
19558ROCHStephane2:56:36N/A3282N/A
12967LEPOUTREBenjaminN/A75300-7530
1506AUBRYDenisN/A34340-3434
317KOEBERLEThibaultN/A43340-4334
3675CHALOPINMathieuN/A43070-4307
18355BRUNOOlivierN/A43290-4329
17562CARPENTIERRenaudN/A35650-3565
6999MAHIEUPierreN/A61590-6159
19741ROBERTMatthieuN/AN/A0N/A
219TARDYOlivierN/A50960-5096
20219BEAUDEQUINMaximeN/AN/A0N/A
11513HAURYGillesN/A52770-5277

  Indice de confiance du circuit (moyenne des différences entre CN et score sur la course des 3 à 10 premiers) : 215




 Circuit "B"

Licence Nom Prénom Temps CN
précédent
Score sur
la course
Différence
4677PINEAULaurent1:36:1560405383-657
6599VERDENALBenoit1:38:1256105276-334
11875FRANCOISGerald1:42:0145025079+577
15329GOUTAUDIERChristophe1:43:5756514984-667
9601BESTELThierry1:44:0952414975-266
15281COUREAUBenjamin1:44:1445944971+377
12778FROELICHERVincent1:45:3347474909+162
7004PHILIPPERenaud1:49:0744064748+342
17068THIERYSebastien1:50:0250414709-332
10998RENAUDBernard1:50:3540654685+620
14628KOTECKAMichaela1:53:2151684571-597
14050BROCHLaurent1:55:1950594493-566
16029TEMPORELLISophie1:56:3944064442+36
10882SCHOULLEROlivier1:58:3943044367+63
8042FLECKFrederick1:59:1844364343-93
7979CHRISTSarah1:59:5846744319-355
8508SELLIERJ-Marc2:05:3547374126-611
13237POULAINAntoine2:06:4348334089-744
13091GUERIOTFrancois2:11:2643933942-451
7713MARTINEZSylvain2:11:54N/A3928N/A
13062STEINNicolas2:12:0341613924-237
2739VENONDavid2:18:5947923728-1064
13857SCHIFANOPhilippe2:19:2844493715-734
12334GOYETAurelien2:20:3531003685+585
17901BUESSINGERJacky2:29:4346353461-1174
1223PICHOLSabrina2:31:28N/A3421N/A
6819HOUDAYERPhilippe2:50:4139213036-885
19713SIEWIERSKIWladyN/AN/A0N/A
11391CLEMENT-AGONIBenjaminN/A47460-4746
16954BERNACJordanN/A49470-4947

  Indice de confiance du circuit (moyenne des différences entre CN et score sur la course des 3 à 10 premiers) : 229




 Circuit "Bbis"

Licence Nom Prénom Temps CN
précédent
Score sur
la course
Différence
1763PAGEPhilippe1:18:1167026711+9
736POURREAlain1:25:5063126113-199
2252GROSHENSDidier1:31:3460355730-305
10361COXAnthony1:35:27N/A5497N/A
13278TAELEMANSPhilippe1:35:3753225488+166
3136LALEVEEJ-David1:36:1148825455+573
2936SANDEVOIRBenoit1:37:2858555384-471
5676BALLIOTYvan1:37:5960585355-703
8422VUITTONChristophe1:38:0659065349-557
13217VERCELLOTTILea1:40:3460165218-798
8354OBSTETARMarc1:40:3952855213-72
343KOEBERLEAlain1:42:3355165117-399
2321DENAIXMichel1:43:2856855071-614
9629SMIRNOVKonstantin1:44:5760745000-1074
9365BARLETGaelle1:46:4758014914-887
7301DUPOIRIEUXCloe1:49:1551134803-310
1085METOISJ-Michel1:49:3245894790+201
2372DIETSCHBernard1:50:1653374759-578
5640HUEBERFrancois1:59:1842744398+124
3413HUROTMichel2:00:1947504361-389
13245POYARDJ-Claude2:02:2736684285+617
1910MEYERJ-Marc2:03:2851634250-913
994SEGUINOTAlbert2:03:5144554237-218
1947POULAINJoel2:04:1454304224-1206
4334TERZIPierre2:05:2751054183-922
10901RAVENELPhilippe2:07:3642664112-154
12828REICHAlain2:12:3639933957-36
2822DICKBURTMichel2:12:5445463948-598
5160QUENEC'HDUJ-Luc2:14:0840653912-153
9723FENEUILBlandine2:15:1050333882-1151
5137AVEDIKIANNicolas2:21:1142753717-558
13845PRETETJ-Claude2:28:0238593545-314
2379BILQUEZEric2:34:3448673395-1472
1980GIESIMaurice2:55:3432632989-274
8765CAILLETFrancoisN/A37300-3730
13693HAURYMarcN/A29900-2990
312JOLYThierryN/A49720-4972
1752GRANSARTRenaudN/A36920-3692
1808GUTSCHENRITTERGuyN/A54660-5466
1335BEAUDEUXPhilippeN/A56510-5651
2759PAPILLONCecileN/A53220-5322

  Indice de confiance du circuit (moyenne des différences entre CN et score sur la course des 3 à 10 premiers) : 237




 Circuit "C"

Licence Nom Prénom Temps CN
précédent
Score sur
la course
Différence
2715HABERKORNBruno1:22:3762196229+10
11687GROTEAndreas1:23:0652266193+967
10755L'HERITIERJean-Philippe1:28:3359005812-88
11430BERNAUERChristophe1:32:4952025545+343
3201RAUTURIERChristophe1:33:4157965493-303
13040VILLARChristophe1:34:5262085425-783
12468RADONDYDaniel1:35:0755135411-102
10906COLINFranck1:35:1662155402-813
7251GRUSELLEFabien1:37:2360955285-810
2151GILLARDHugues1:39:0357235196-527
6117LESAULTPhilippe1:40:2356565127-529
8426MORELLudovic1:42:1655755032-543
2796LEGALLAISJ-Luc1:45:1354774891-586
11919REMOUETMichel1:46:0053504855-495
16234DOLCIMathias1:47:1334014800+1399
8083POINSIGNONVincent1:48:1460954755-1340
5421LOTERIEJ-Francois1:53:1255674546-1021
7200SZYMANOWSKIFabrice1:54:0846254509-116
12766LOGERobert1:56:0651074433-674
16630PIGEONEric2:02:5746014186-415
11361JAUVAINThierry2:03:1139854178+193
13497CAPISANIMarc2:05:4655274092-1435
12846LHERMITTEFrederic2:09:0229953988+993
4357ROULLEAUXAlain2:09:4850523965-1087
15896DANELJulien2:11:4635623906+344
20048HANAUERJean Marie2:16:48N/A3762N/A
1313SCHIAVORegis2:28:4732803459+179
1897FRICKBernard2:29:2140043446-558
20053LALLEMENTLionel2:32:23N/A3377N/A
11383GONNEAUDHerve2:33:2931113353+242
11099MARTINBertrand2:38:2124853250+765
3905JOUFFROYMichel2:59:0338592874-985
15232ROGERVincent3:05:3130782774-304
2407MAGINOTFrancisN/A41240-4124

  Indice de confiance du circuit (moyenne des différences entre CN et score sur la course des 3 à 10 premiers) : 202




 Circuit "D"

Licence Nom Prénom Temps CN
précédent
Score sur
la course
Différence
2482COCHEYElodie1:20:4245644372-192
14648DIDOUSophie1:22:2249354283-652
2470MOUCHETTESabrina1:24:3933264168+842
13243MACABIAUEmilia1:24:5041224159+37
2892MOULIERECamille1:25:0345524148-404
720CLOEZVeronique1:29:3541513938-213
5463DENAIXOriane1:29:5642413923-318
8445FINASCeline1:31:4742993844-455
10527LEMERCIERCeline1:32:3438743811-63
745TINCHANTEstelle1:34:3546003730-870
9265BASTIENAmelie1:35:0932613708+447
14582LAZARDTiphaine1:45:3840523340-712
19394REFFETFanny1:46:3328763311+435
632DUBROCAChristele1:49:3138263221-605
12526STAUFFEREmmanuelle1:51:0531893176-13
17309BESTELFlorence1:53:0230453121+76
19675ROBERTVirginie1:54:42N/A3076N/A
18931MAUVILLYKarine1:57:5424002992+592
13688FRANCOISAline1:59:3134812952-529
12337LAUTISSIERLaure2:05:2331672814-353
13242SCHOULLERCoralie2:06:2825572790+233
14576GAFFURIA-Laure2:08:1829362750-186
18575STENBACKAgnès2:09:4932322718-514
9870LE-GOALLECAnaïs2:10:4340122699-1313
13833TRIMAILLEIsabelle2:16:0330892593-496
4073TARDYNatacha2:18:1334372552-885
10903RAVENELManon2:18:1936712551-1120
13061STEINVirginie2:18:3134572547-910
17899DEPERSINIsabelle2:20:3528732510-363
17625MERCIERSylvie2:20:5622542503+249
912LOUVETEloise2:35:1332172273-944
14227DESRUMAUXMarieN/A43960-4396
3831MORELMathildeN/AN/A0N/A
2375MAKOVICKAEdwigeN/A33190-3319
4012VENONMarionN/AN/A0N/A

  Indice de confiance du circuit (moyenne des différences entre CN et score sur la course des 3 à 10 premiers) : 156




 Circuit "E"

Licence Nom Prénom Temps CN
précédent
Score sur
la course
Différence
1884DUBOCMichel1:05:4157145713-1
2937STRIBEAUMichel1:08:5054335451+18
12773OBSTETARPerrine1:10:3744505313+863
2369BRELLMANNHubert1:10:4946075298+691
2179OLIVIERSandra1:13:5748655074+209
1481FATHJean-Marie1:13:5853905073-317
706BACHEREdith1:16:2852544907-347
2760PAPILLONDaniel1:18:4151644769-395
3312CORDIERJacques1:19:5649154694-221
11440DUPOIRIEUXGilles1:20:0450954686-409
4183RAUTURIERCamille1:20:4953494643-706
16588BESCHFrederic1:22:3342694545+276
2894LEBIHANMarcel1:22:44N/A4535N/A
5639HUEBERDiane1:24:5441844420+236
14302CAMPBELLNick1:25:3449104385-525
8359MONTERRATAmandine1:27:5850784265-813
2717HABERKORNValérie1:29:4447354181-554
7259SUTTERAriane1:30:0044164169-247
4890CLERCGaston1:30:2245694152-417
2670GOLMARDDominique1:31:0645074119-388
3526BRISEPIERRERichard1:31:2546424104-538
12515VUILLAUMEBertrand1:32:0047764078-698
738POURREValerie1:32:1444074068-339
9145ROCHERAdèle1:32:4832224043+821
320BAGUEREYGilles1:33:4443784003-375
2733PORTEChristine1:33:4644294002-427
10146ETIENNEDominique1:34:1537963981+185
2712VUILLETChristian1:34:3346143968-646
9924BOICHUTIsabelle1:35:0448773947-930
5464DENAIXMaylis1:35:2040603936-124
3415PIERRONClaude1:35:2141583935-223
10496DUPOIRIEUXSophie1:35:3439333926-7
2378MAKOVICKAVeronique1:35:3844193924-495
2666ENARDYves1:35:5542843912-372
14216VILLARIsabelle1:35:5838263910+84
1487MARCHESINSylvie1:37:3042603848-412
302BAGUEREYBaptiste1:37:3445713846-725
12771OBSTETARAnne1:37:4443443839-505
1906MERTZAndre1:37:5842383830-408
2782REMOUETM-Pierre1:39:1848293779-1050
724LAURENTPhilippe1:39:2639593774-185
16130ANCELJulie1:39:2835423772+230
9363BARLETJ-Pierre1:39:3138443770-74
8028GENEVEMarc1:40:1931343740+606
886GIRECamille1:41:0144113714-697
9077DALLA-COSTAChristia1:41:0331823713+531
13937ERTELKelly1:41:0649243711-1213
2268BOTTEMERChristian1:41:1140513708-343
314VESCOVOJ-Charles1:43:0536653640-25
2530LOCUSSERobert1:43:1335673635+68
13114BERNAUERLaurence1:43:56N/A3610N/A
4059FAIVREDaniel1:45:3744653553-912
15092VILLEDIEUJ-Luc1:45:4831133546+433
13692HAURYEvelyne1:46:0341363538-598
7676MATHEVONCatherine1:46:12N/A3533N/A
8116GARROTSophie1:46:5937183507-211
1710CERINIJ-Michel1:47:0342853505-780
9165BAILLEULJ-Paul1:48:3139843458-526
4216GROSJEANThierry1:51:2730343367+333
2483DUCHENESerge1:51:4338443359-485
12282GERARDNathalie1:54:1632613284+23
14223FISCHERGuy1:54:5132813267-14
4810GROCAlain1:55:2138483253-595
10560MARTINBernard1:55:2938213249-572
15858CASASSASAntoine1:56:4335083215-293
8920TOUZAIN ROULLEAUXIsabelle1:58:0238213179-642
7658ZEHNTERRaymond1:58:1536253173-452
9164TORZDidier1:59:0036063153-453
5450DELLA VALLEJean-Baptiste1:59:0533873151-236
15332MEYERPatricia2:00:2436383116-522
17080SCHAMBERGERDaniel2:00:3234843113-371
14478LADEVEZECharlotte2:00:5831053102-3
3200RAUTURIERNathalie2:01:2335233091-432
12767LOGESophie2:02:2934483063-385
18589CHENUAlain2:03:1829713043+72
10902RAVENELVeronique2:04:2331493017-132
11505CORREYves2:04:4837993007-792
11507LEBIHANMartine2:05:1632102995-215
3181ROUSSEAUJ-Claude2:06:4741872960-1227
9406AVEDIKIANRachel2:07:1732992948-351
2536MOUCHETTEAlain2:07:5532232933-290
1909MEYERCorinne2:08:3534732918-555
1984HALLAYJ-Pierre2:08:4130422916-126
2481DUCHENEEdith2:10:0936462883-763
11388CAILLETVeronique2:11:3230742853-221
18062TREPTELAnne2:11:4127202849+129
19680GOETTMANNJean-Pierre2:20:56N/A2662N/A
18044RUDOWSKIJustine2:20:5820592662+603
2524DUVALJacques2:23:0928032621-182
8512MONTERRATMartine2:31:1732742480-794
18572BACKSCHEIDERJean Marie2:33:11N/A2449N/A
2412MAGINOTEmmanuelle2:34:1139592434-1525
9144LOISY-ROCHERAnne2:38:2016912370+679
3414HUROTFlorence2:38:5130662362-704
7520BOUCHESylvie2:39:0325582359-199
13710WISSONBernard2:40:3333032337-966
15297BOEHMYves2:46:1825782256-322
15538DOREIsabelle2:57:0817102118+408
2884LECOYERRegisN/A33880-3388
1948POULAINOdileN/A32020-3202
2376MAKOVICKALiborN/A42680-4268
2522DUMONTNorbertN/A30810-3081
11100MARTINAnnieN/A22370-2237
340FISCHERM-DominiqueN/A17800-1780
1221PICHOLBernardN/AN/A0N/A
3904JOUFFROYChristineN/A32220-3222

  Indice de confiance du circuit (moyenne des différences entre CN et score sur la course des 3 à 10 premiers) : 47




 Circuit "F"

Licence Nom Prénom Temps CN
précédent
Score sur
la course
Différence
1843BOUSSEREtienne0:50:4161615611-550
1993PERICHONBernard0:51:1056745558-116
2738VENONGerard0:54:3959715204-767
3163COLOMBETChristian0:57:2847754949+174
1583TAILLANDIERGuy0:57:4552204925-295
5938EGGLIRoland0:58:1053784889-489
18680BIASSEGuy1:02:0841394577+438
476MATHIEUMaurice1:03:1441854498+313
703ABISSEJacques1:06:1443964294-102
2400BONNETChristine1:07:3446154209-406
2571DURIEUXPierre1:08:1342054169-36
2519DIRRINGERJacques1:08:1739954165+170
1178LEMERCIERBernard1:09:0137984121+323
3108GANZITTIAlexandre1:09:3249484090-858
1916RUHLMANNJ-Pierre1:11:0235444004+460
2457CHEVRYArmand1:12:0942803942-338
5597EJSMONTJean1:13:5844293845-584
16352BAUDOINJ-Paul1:15:0631083787+679
17406CAMPBELLJane1:15:5638273745-82
1086ROBERTChristian1:15:5948563743-1113
2006TESSIERDaniel1:16:2633673721+354
9509BASTIENChantal1:18:3232323621+389
4377PAOLUCCIRene-Claude1:20:4332793523+244
2271HOFERERAlbert1:22:2836103449-161
11071POINSENOTRoger1:22:3129613447+486
13752VILLEDIEUMartine1:22:4931013434+333
1262BEHOTEGUYBernard1:22:5834573428-29
3651VAGNERChristine1:23:4046183399-1219
1276ANTOINERegis1:23:5737533388-365
5607LAMBERTNadine1:23:5831573387+230
4378PAOLUCCIChristiane1:24:1133613378+17
2664ENARDMonique1:24:2731433368+225
2539MOUCHETTERegine1:25:0229653345+380
2555RIAULTBernard1:25:5938993308-591
3674CHALOPINCatherine1:26:1331523299+147
2368BENACEKVaclav1:26:1538203297-523
1693BAUDRYJ-Claude1:27:5132143237+23
2558VOGTClaude1:29:4143283171-1157
1087ROBERTMartine1:30:2835523144-408
930SIMONETJean1:31:2842713109-1162
2411ROLLETDaniel1:32:2634383077-361
363THIERRY-FISCHERChri1:32:5936323059-573
3320PIERSONJ-Luc1:36:3933162943-373
9364BARLETNancy1:38:3831632883-280
326BERBETTGabriel1:39:5928992844-55
370WOEHRLEGilbert1:40:3432592828-431
18681BIASSEMarine1:42:0223572787+430
11369GUIGNARDM-Christine1:42:2030042779-225
2761PAPILLONFrancoise1:42:2824762776+300
12102BOUVERETMichelle1:46:2129552674-281
2445RIFFARDJ-Claude1:47:1533942652-742
1895SALORT - METZSylvie1:47:2028982650-248
2474LEMERCIERJocelyne1:50:4025072570+63
7182BERGERM-Jose1:51:0726932559-134
3182ROUSSEAUMartine1:53:5424332497+64
739RUAUDAgnes1:54:1926982488-210
16129THIEBAUTEvelyne1:56:4125862437-149
7204CURTDaniel2:00:4023292357+28
2387SUTTEROdile2:02:5526042314-290
13991POUPIERClaudine2:05:5422902259-31
12829REICHM-Louise2:08:1118852219+334
1363FERRAGERene2:08:1734542217-1237
2885LECOYERAnnick2:10:4226742176-498
2485JOLYAlain2:14:3027042114-590
2004TESSIERAriane2:18:4820232049+26
1456CARTERETJ-ClaudeN/A37670-3767
2428LHUILLIERMarleneN/A17050-1705
1222PICHOLGiseleN/AN/A0N/A
1381DIEUDONNERolandN/A39960-3996

  Indice de confiance du circuit (moyenne des différences entre CN et score sur la course des 3 à 10 premiers) : 64




 Circuit "G"

Licence Nom Prénom Temps CN
précédent
Score sur
la course
Différence
2401DEVILLENelly0:58:2941494305+156
1448KENANEAbdelkader1:00:2737454165+420
2716HABERKORNDidier1:04:1240523922-130
2611AMIOTJacques1:04:4832413886+645
1380DIEUDONNEMadeleine1:14:2641773383-794
295PEETERSSimone1:14:5930233358+335
6491ROBERTFrancoise1:18:2234873213-274
2557VOGTChristiane1:18:4535333197-336
3179RICHARDClaudette1:29:1928552819-36
701ABISSEGisele1:29:3631022810-292
2446RIFFARDM-Lucie1:30:0332432796-447
352MULLERRaymond1:32:3828392718-121
1883HITZRene1:33:4323842687+303
1443BEGUINOTJacques1:38:4029842552-432
368VESCOVOOdile1:48:0221062331+225
15630DIRRINGERM-Claude1:49:0227322309-423
2413ROLLETM-Madeleine1:56:2620422163+121
725LAURENTTherese1:57:5425872136-451
3185PASCAUDClaire2:02:4725282051-477
15894LUDEWIG-JAMESCarol2:06:1121441995-149
11368LAUNEYNoella2:09:3421201943-177
8954BASTIEN-FATHNicole2:17:2920121831-181
16634BAUDOINAnnie2:21:0120691786-283
1444BEGUINOTM-Louise2:33:4017621639-123

  Indice de confiance du circuit (moyenne des différences entre CN et score sur la course des 3 à 10 premiers) : 249




 Circuit "H"

Licence Nom Prénom Temps CN
précédent
Score sur
la course
Différence
14672BLANC-TRANCHANTOlivier0:52:1562705683-587
9874AVEDIKIANVincent0:54:5664055405-1000
7260SUTTEROlivier0:59:2051935004-189
10561DUPOIRIEUXJules1:00:4056654894-771
14673LECLERCBenjamin1:01:2963624829-1533
14372DUBOISRemi1:01:3561984822-1376
13669DESREUMAUXArthur1:08:5559864309-1677
11475GODEFROYBruno1:11:0447714178-593
5638TARDYVictor1:12:1045094114-395
14451RIBAUDOJasmin1:14:5053493968-1381
15845BACKSCHEIDERAdrien1:15:0333903956+566
20040GOUVERNEURAntoine1:15:36N/A3928N/A
15277PRETETValentin1:16:1832893892+603
19028SCHMIDT-MORGENROTHJacques1:17:0025533856+1303
14079MONTFRONDP-Alain1:18:2840423784-258
15739BELLIOlivier1:21:0946713659-1012
10722MAHLERFelix1:25:0847303488-1242
17345LARGILLERELucien1:25:5642373455-782
14967DUPUYMathis1:28:2532593358+99
8639BILQUEZHugo1:37:0937193056-663
12146WISSONFlorent1:42:1940332902-1131
17998CROUVISIERKevin1:42:3727412894+153
20288MEYERBryan1:42:48N/A2888N/A
20214PECQUEURFlorian1:47:01N/A2775N/A
12523DOREAlexandre1:48:1428022743-59
18467GOETTMANNPierre-Aimé2:00:0637952472-1323
15478LYSKAWANicolas2:34:3622301921-309
16511VINCENTBenoitN/A43980-4398
11511BRELLMANNMichelN/A42460-4246

  Indice de confiance du circuit (moyenne des différences entre CN et score sur la course des 3 à 10 premiers) : 254




 Circuit "I"

Licence Nom Prénom Temps CN
précédent
Score sur
la course
Différence
13391ROGERAlexandre0:44:3346854325-360
15847BACKSCHEIDEREmilie0:44:3651314320-811
11061SANDEVOIRLuc0:47:0641454091-54
19661TREPTELPierre0:49:2432443901+657
6753HUEBERNicole0:49:3445663888-678
4182RAUTURIERMaxime0:51:3350473738-1309
16751CHAPELOTLucas0:53:1943363614-722
5436FLAMBEAUMathilde0:54:3351123532-1580
19411DUBOISXavier0:54:50N/A3514N/A
9976POINSIGNONElise0:55:2943223473-849
19240MAZYFrançois-rémi0:55:3529633467+504
15093VILLEDIEURemi0:56:1139713430-541
10904RAVENELFanny0:58:2845113296-1215
15170DESREUMAUXVictor0:59:1543043252-1052
19017COURTOISYoann0:59:1631023251+149
13478KORCHAKNicole1:01:3037703133-637
9897MORELHelene1:05:5543972923-1474
17681MAIRECamille1:06:4935342884-650
12284GERARDLea1:07:0530382872-166
12769LOGEPaul1:07:5641282837-1291
17487VALDENAIREMathilde1:08:2028862820-66
14911LAMINETTEPauline1:09:0638992789-1110
9171POULAINYannick1:10:1738692742-1127
18468GOETTMANNThomas1:11:5927352677-58
20212DAMIENSMaxime1:14:05N/A2601N/A
12768LOGELucie1:19:2338082427-1381
12375ASMUSSENFlorence1:20:0834292405-1024
18632CUVILLIERSPerrine1:22:4531742329-845
17270BENAZET LACARRELaure Emmanuelle1:30:3726502126-524
20295LECUYERThibault1:33:59N/A2050N/A
20294LECUYERClement1:34:03N/A2049N/A
15846BACKSCHEIDERMarie1:39:1734581941-1517
11748STRIBEAUMelanie1:42:3231561879-1277
20211CREPIEUXRémy1:43:53N/A1855N/A
14659PERRINThibaut1:59:41N/A1610N/A
17683BRENETMathias2:09:5415751483-92
19243BAQUEBenjaminN/AN/A0N/A

  Indice de confiance du circuit (moyenne des différences entre CN et score sur la course des 3 à 10 premiers) : 280




 Circuit "Ibis"

Licence Nom Prénom Temps CN
précédent
Score sur
la course
Différence
15479MORELEugenie0:42:1737553176-579
17433TREPTELSolene0:45:1530282968-60
7045LOTERIELaurine0:49:4436502700-950
6779MAKOVICKAElsa0:51:0936022625-977
7711DENAIXLou0:52:1034212574-847
10077POURREMarion0:52:4633042545-759
10024RUHLMANNElodie1:01:1525292193-336
11385GONNEAUDPerrine1:01:5123042171-133
19362TOULEMONDECamille1:03:3018092115+306
14575AMETMarion1:09:14N/A1940N/A
15276VERDINAlix1:09:2818791933+54
9964MONTERRATLaurene1:18:4324191706-713
19238CAMASMandye1:18:57N/A1701N/A
10909COLINCamille1:19:1825531693-860
17344LARGILLEREEugenie1:30:5626901477-1213
17494ANDRIAMORAZAFIHANTASophieN/A27530-2753

  Indice de confiance du circuit (moyenne des différences entre CN et score sur la course des 3 à 10 premiers) : 248




 Circuit "K"

Licence Nom Prénom Temps CN
précédent
Score sur
la course
Différence
11092HUROTBenjamin0:19:3842373208-1029
18841VUITTONGaetan0:20:3623983057+659
11559ROULLEAUXJulie0:23:2937182682-1036
17012FRASCOLLAAdrien0:23:5521392633+494
10396HABERKORNChloé0:24:2232102585-625
14573JACQUETMartin0:24:3221002567+467
9172POULAINGael0:25:2519242478+554
13477DIETSCHJoel0:25:5427122432-280
19413HANAUERSébastien0:27:42N/A2274N/A
11454LEMERCIERVictoire0:27:4727192267-452
20232PIERRATEmeline0:32:18N/A1950N/A
18213LARGILLÈRENicolas0:32:4626691922-747
11508LEBIHANBarbara0:33:3926991872-827
17715SAVARTTitouan0:39:53N/A1579N/A
19736GHEERAERTHugo0:40:10N/A1568N/A
18136MIOLLANYAlex0:40:4126821548-1134
18831PERDERIZETRomain0:59:1119781064-914
14658PERRINNathan1:26:101950731-1219

  Indice de confiance du circuit (moyenne des différences entre CN et score sur la course des 3 à 10 premiers) : 382




 Circuit "L"

Licence Nom Prénom Temps CN
précédent
Score sur
la course
Différence
18304BEAUDEUXThéo0:20:1630783374+296
14273POURREJeremi0:23:2524782920+442
13851MAGINOTPaul0:23:5522352859+624
15327HUROTEden0:28:4919192373+454
16132GROSJEANCapucine0:36:4718921859-33
17495ANDRIAMORAZAFIHANTANirina0:49:0721951392-803
18137DELLA VALLEElsa1:09:27N/A984N/A
2744VUILLETGermaine1:38:35898694-204

  Indice de confiance du circuit (moyenne des différences entre CN et score sur la course des 3 à 10 premiers) : 597






 Retour